FW7994 Weather Reports


time (UTC)temp
F
wind
direction
speed
knots
gust
knots
rain 1hr
in
rain 24hr
in
rain mn
in
humidity
%
barometer
mb
20260504035516 50 0.0 0.0 0.00 0.02 0.02 43 1015.2
20260504034516 50 0.0 0.0 0.00 0.02 0.02 45 1015.1
20260504033516 51 0.0 0.0 0.00 0.02 0.02 46 1015.2
20260504032556 51 0.0 0.0 0.00 0.02 0.02 46 1015.3
20260504031516 51 0.0 0.0 0.00 0.02 0.02 48 1015.2
20260504030516 51 0.0 0.0 0.00 0.02 0.02 48 1015.2
20260504025516 51 0.0 0.0 0.00 0.02 0.02 48 1015.1
20260504024516 51 0.0 0.0 0.00 0.02 0.02 50 1015.1
20260504023516 52 0.0 0.0 0.00 0.02 0.02 52 1015.1
20260504022516 52 0.0 0.0 0.00 0.02 0.02 53 1014.9
20260504021536 52 0.0 0.0 0.00 0.02 0.02 53 1014.8
20260504020516 53 0.0 0.0 0.00 0.02 0.02 55 1014.7
20260504015516 53 0.0 0.0 0.00 0.02 0.02 58 1014.6
20260504014516 54 0.0 0.0 0.00 0.02 0.02 59 1014.6
20260504013516 54 0.0 0.0 0.00 0.02 0.02 61 1014.4
20260504012516 55 0.0 0.0 0.00 0.02 0.02 63 1014.5
20260504011516 55 0.0 0.0 0.00 0.02 0.02 65 1014.4
20260504010516 56 0.0 0.0 0.00 0.02 0.02 66 1014.3
20260504005516 56 0.0 0.0 0.00 0.03 0.02 68 1014.2
20260504004516 57 0.0 0.0 0.00 0.05 0.02 68 1014.2
20260504003516 58 0.0 0.0 0.00 0.06 0.02 68 1014.2
20260504002516 59 0.0 0.0 0.00 0.08 0.02 68 1014.2
20260504001516 60 0.0 0.0 0.00 0.08 0.02 68 1014.2
20260504000516 61 0.0 0.0 0.00 0.08 0.02 67 1014.2
20260503235516 62 0.0 0.0 0.00 0.08 0.02 64 1014.2
20260503234516 62 0.0 0.0 0.00 0.08 0.02 60 1014.2
20260503233517 63 0.0 0.0 0.00 0.08 0.02 60 1014.2
20260503232516 64 0.0 0.0 0.00 0.08 0.02 59 1014.3
20260503231616 65 0.0 0.0 0.00 0.08 0.02 59 1014.4
20260503230516 66 0.0 0.9 0.00 0.08 0.02 59 1014.4
20260503225516 67 0.0 0.9 0.00 0.08 0.02 51 1014.6
20260503224516 69 0.0 1.7 0.00 0.08 0.02 50 1014.6
20260503223535 69 0.0 0.9 0.00 0.08 0.02 49 1014.6
20260503222515 69 180 0.9 2.6 0.00 0.08 0.02 46 1014.6
20260503221516 69 0.0 1.7 0.00 0.08 0.02 47 1014.6
20260503220515 70 225 0.9 2.6 0.00 0.08 0.02 50 1014.6
20260503215515 70 225 0.9 4.3 0.00 0.08 0.02 42 1014.6
20260503214515 70 0.0 1.7 0.00 0.08 0.02 42 1014.6
20260503213540 69 203 0.9 3.5 0.00 0.08 0.02 44 1014.6
20260503212515 70 158 0.9 4.3 0.00 0.08 0.02 42 1014.8
20260503211517 70 203 0.9 3.5 0.00 0.08 0.02 48 1014.7
20260503210538 70 225 0.9 3.5 0.00 0.08 0.02 43 1014.8
20260503205517 70 113 0.9 4.3 0.00 0.08 0.02 48 1015.0
20260503204517 70 158 0.9 4.3 0.00 0.08 0.02 47 1015.1
20260503203517 70 0.0 1.7 0.00 0.08 0.02 43 1015.1
20260503202517 70 180 0.9 4.3 0.00 0.08 0.02 43 1015.3
20260503201537 70 90 0.9 6.1 0.00 0.08 0.02 47 1015.5
20260503200517 69 0.0 2.6 0.00 0.08 0.02 44 1015.8
20260503195517 69 180 0.9 3.5 0.00 0.08 0.02 52 1016.0
20260503194524 69 158 0.9 4.3 0.00 0.08 0.02 47 1016.1
20260503193517 69 315 0.9 4.3 0.00 0.08 0.02 46 1016.2
20260503192517 68 0.0 1.7 0.00 0.08 0.02 47 1016.5
20260503191537 68 0.0 1.7 0.00 0.08 0.02 48 1016.7
20260503190517 68 0.0 0.9 0.00 0.08 0.02 55 1016.9
20260503185522 67 0.0 0.9 0.00 0.08 0.02 47 1017.0
20260503184517 68 293 0.9 3.5 0.00 0.08 0.02 48 1017.1
20260503183517 67 315 0.9 4.3 0.00 0.08 0.02 46 1017.1
20260503182617 67 0.0 4.3 0.00 0.08 0.02 52 1017.2
20260503181517 67 45 0.9 4.3 0.00 0.08 0.02 46 1017.2
20260503180517 67 248 0.9 4.3 0.00 0.08 0.02 46 1017.3
20260503175517 67 293 0.9 7.0 0.00 0.08 0.02 49 1017.3
20260503174517 66 315 1.7 6.1 0.00 0.08 0.02 55 1017.4
20260503173537 65 0.0 0.9 0.00 0.08 0.02 55 1017.5
20260503172517 65 270 0.9 4.3 0.00 0.08 0.02 53 1017.7
20260503171517 64 0.0 1.7 0.00 0.08 0.02 51 1017.7
20260503170517 63 0.0 0.9 0.00 0.08 0.02 57 1017.9
20260503150536 61 203 0.9 3.5 0.00 0.08 0.02 59 1018.8
20260503130536 49 0.0 0.9 0.01 0.08 0.02 18 1018.0
20260503110536 43 0.0 0.0 0.00 0.12 0.01 26 1016.8
20260503081516 45 0.0 0.0 0.00 0.21 0.01 25 1015.0
20260503080516 46 0.0 0.0 0.00 0.21 0.01 24 1014.9
20260503072515 47 0.0 0.0 0.00 0.22 0.01 22 1014.5
20260503071516 47 0.0 0.0 0.00 0.22 0.01 22 1014.4
20260503070516 47 0.0 0.0 0.00 0.22 0.01 22 1014.3
20260503054517 49 0.0 0.0 0.01 0.22 0.01 22 1014.2
20260503053538 49 0.0 0.0 0.01 0.22 0.01 22 1014.3
20260503052517 49 0.0 0.0 0.01 0.22 0.01 22 1014.3
20260503051517 49 0.0 0.0 0.01 0.22 0.01 22 1014.2
20260503050517 49 0.0 0.0 0.00 0.21 0.00 22 1014.2
20260503045517 50 0.0 0.0 0.00 0.21 0.00 22 1014.1
20260503044517 50 0.0 0.0 0.00 0.21 0.00 22 1014.0
20260503043517 50 0.0 0.0 0.00 0.21 0.00 23 1014.1
20260503042517 50 0.0 0.0 0.00 0.21 0.00 23 1013.9
20260503041517 50 0.0 0.0 0.00 0.21 0.00 23 1013.7
20260503040517 51 0.0 0.0 0.00 0.21 0.00 23 1013.8